Regional Weather Roundup
Issued by NWS Midland/Odessa, TX

Home | Current Version | Previous Version | Text Only | Print | Product List | Glossary On
Versions: 1 2 3 4 5 6 7 8 9 10 11 12 13 14 15 16 17 18 19 20 21 22 23 24 25 26 27 28 29 30 31 32 33 34 35 36 37 38 39 40 41 42 43 44 45 46 47 48 49 50
000
ASUS44 KMAF 041310
RWRMAF
MIDLAND AREA WEATHER ROUNDUP
NATIONAL WEATHER SERVICE MIDLAND TX
800 AM CDT SAT JUL 04 2015

...IN SOUTHWEST TEXAS AND SOUTHEAST NEW MEXICO...

CITY           SKY/WX    TMP DP  RH WIND       PRES   REMARKS
ALPINE         CLOUDY    70  62  77 S5        30.14S
ANDREWS        FAIR      70  64  82 SE6       30.06R
ARTESIA        PTSUNNY   70  64  83 CALM      30.07S
BIG SPRING     SUNNY     74  67  78 SE10      30.05S
CARLSBAD       MOSUNNY   70  64  81 CALM      30.05R
DRYDEN           N/A     75  69  81 SE6       29.98R
FORT STOCKTON  SUNNY     72  65  78 SE9       30.02R
GUAD PASS      SUNNY     64  61  90 NE16      30.17R
HOBBS          SUNNY     66  64  94 CALM      30.08S
MARFA          PTSUNNY  N/A N/A N/A CALM      30.13S
MIDLAND AIRPK  SUNNY     73  66  77 SE5       30.05R
MIDLAND INTL   MOSUNNY   72  65  78 SE7       30.04R
ODESSA         CLOUDY    72  65  78 SE9       30.05R
PECOS          SUNNY     72  64  74 NE8       30.00R
PRESIDIO       CLOUDY    79  64  59 NE12G17   29.98R
SEMINOLE       MOSUNNY   70  61  74 CALM      30.07S
SNYDER         SUNNY     70  65  85 S6        30.05R
WINK           MOSUNNY   74  65  73 SE12      30.01R
$$
...OTHER STATIONS IN TEXAS...

CITY           SKY/WX    TMP DP  RH WIND       PRES   REMARKS
ABILENE        MOSUNNY   76  69  79 S8        30.01S
AMARILLO       SUNNY     66  60  81 CALM      30.07R
AUSTIN         PTSUNNY   76  75  97 S6        30.01R
BROWNSVILLE    MOSUNNY   79  75  87 S8        29.96S
CORPUS CHRISTI MOSUNNY   80  76  87 SE9       29.97R
DALLAS FTW     PTSUNNY   81  70  69 SW10      29.96S
DEL RIO        CLOUDY    76  71  85 E8        29.95S
EL PASO        MOCLDY    78  60  53 E6        30.04R
HOUSTON INT    MOSUNNY   80  76  87 S3        30.02R
LUBBOCK        MOSUNNY   73  63  70 S5        30.05R
SAN ANGELO     MOSUNNY   74  69  85 S6        30.01R
SAN ANTONIO    PTSUNNY   78  74  87 S9        30.01S
WACO           PTSUNNY   77  73  87 S9        30.00R
WICHITA FALLS  NOT AVBL
$$
...OTHER LOCATIONS IN NEW MEXICO...

CITY           SKY/WX    TMP DP  RH WIND       PRES   REMARKS
ALAMAGORDO     MOSUNNY   66  57  72 SE5       30.09R
ALBUQUERQUE    PTSUNNY   71  56  58 N8        30.16R
CANNON AFB     MOSUNNY   67  62  82 W2        30.09R
CLOVIS         MOSUNNY   66  61  82 SW6         N/A
HOLLOMAN AFB   MOSUNNY   66  61  84 E2        30.07R
ROSWELL        PTSUNNY   69  61  75 CALM      30.05F
RUIDOSO        PTSUNNY   59  55  88 SW5       30.28R
SANTA FE       MOSUNNY   66  54  65 SE8       30.22R
TRUTH OR CONSE PTCLDY    69  61  75 W3        30.11R
TUCUMCARI      MOSUNNY   68  60  75 W12       30.07S
$$


USA.gov is the U.S. government's official web portal to all federal, state and local government web resources and services.